Location: Hermaringen
(48.5952°N, 10.2585°E)
Time: 14:29:28
(UTC+00:00)

Explorer 7 - Pass Details

Date: 20 February 2026
Orbit: 430 x 541 km, 50.2° (Epoch: 8 March)

Event Time Altitude Azimuth Distance (km) Brightness Sun altitude
Rises 18:54:03 0° 287° (WNW) 2,526 11.7 -21.4°
Reaches altitude 10° 18:56:17 10° 278° (W) 1,666 10.4 -21.8°
Maximum altitude 18:59:45 36° 211° (SSW) 805 7.8 -22.4°
Enters shadow 19:00:13 34° 195° (SSW) 830 7.7 -22.4°
